Regional Weather Roundup
Issued by NWS San Diego, CA

Home | Current Version | Previous Version | Text Only | Print | Product List | Glossary On
Versions: 1 2 3 4 5 6 7 8 9 10 11 12 13 14 15 16 17 18 19 20 21 22 23 24 25 26 27 28 29 30 31 32 33 34 35 36 37 38 39 40 41 42 43 44 45 46 47 48 49 50
000
ASUS46 KSGX 281510
RWRSGX

SAN DIEGO HOURLY WEATHER ROUNDUP
NATIONAL WEATHER SERVICE SAN DIEGO CA
700 AM PST WED JAN 28 2015

NOTE: "FAIR" INDICATES FEW OR NO CLOUDS BELOW 12,000 FEET WITH NO
SIGNIFICANT WEATHER AND/OR OBSTRUCTIONS TO VISIBILITY.

CAZ042-043-060-061-PZZ750-775-281600-

GREATER SAN DIEGO AREA

CITY           SKY/WX    TMP DP  RH WIND       PRES   REMARKS
LINDBERGH FLD  MOCLDY    55  47  74 CALM      30.14S
POINT LOMA       N/A     55  51  85 N6          N/A
NATIONAL CITY    N/A     51  47  86 CALM      30.14R
CHULA VISTA      N/A     50  47  89 CALM      30.07R
IMPERIAL BEACH MOCLDY    51  46  83 NE5       30.13S
BROWN FIELD    MOCLDY    54  45  71 SE6       30.13R
MIRAMAR MCAS   MOCLDY    53  46  77 E6        30.12S
MONTGOMERY FLD MOCLDY    53  47  79 CALM      30.13S

$$

NORTH SAN DIEGO COUNTY

CITY           SKY/WX    TMP DP  RH WIND       PRES   REMARKS
CAMP PENDLETON MOCLDY    46  41  82 CALM      30.13F HAZE
OCEANSIDE AP   MOCLDY    50  45  83 NE6       30.12S
OCEANSIDE HBR    N/A     52  48  87 NE3       30.15F
VISTA            N/A     51  46  82 CALM      30.11F
CARLSBAD       MOCLDY    52  46  80 CALM      30.11S
DEL MAR          N/A     53  49  86 CALM      30.14F
FALLBROOK        N/A     57  51  80 W6        30.14S
ESCONDIDO        N/A     48  45  88 CALM      30.15S
SAN MARCOS       N/A     56  48  73 CALM      30.11F
POWAY            N/A     45  42  91 CALM      30.16S

$$

EAST SAN DIEGO COUNTY

CITY           SKY/WX    TMP DP  RH WIND       PRES   REMARKS
RAMONA         PTCLDY    45  40  82 CALM      30.14S
SANTEE LAKES     N/A     47  45  94 CALM      30.16S
LA MESA          N/A     53  46  77 E3        30.07S
JAMUL            N/A     49  44  82 CALM      30.14R
DESCANSO N       N/A     53  40  61 E5        30.07F
MT. LAGUNA OBS   N/A     39  37  89 E9        29.80S WCI  33
CAMPO            N/A     51  43  74 VRB3      30.15R

$$

ORANGE COUNTY AND THE LOS ANGELES BASIN

CITY           SKY/WX    TMP DP  RH WIND       PRES   REMARKS
JOHN WAYNE AP  MOCLDY    56  47  71 NE3       30.13S
LAGUNA BEACH     N/A     47  46  94 CALM      30.09S
LAKE FOREST FR   N/A     56  35  45 NE6       30.03S
SANTA ANA        N/A     51  47  85 CALM      30.08F
HUNTINGTON BCH   N/A     50  49  95 CALM      30.14F
LOS ALAMITOS   MOCLDY    51  49  93 NE2       30.12F
FULLERTON      MOCLDY    55  48  77 CALM      30.12S
LONG BEACH     MOCLDY    54  46  74 NW3       30.12F
L.A. AP        CLOUDY    58  47  66 NE3       30.14S
L.A. DOWNTOWN  CLOUDY    58  46  64 CALM      30.13S

$$

THE INLAND EMPIRE

CITY           SKY/WX    TMP DP  RH WIND       PRES   REMARKS
CORONA         CLOUDY    56  47  71 CALM      30.15S
CHINO          CLOUDY    51  46  83 CALM      30.16R
ONTARIO        CLOUDY    51  45  79 CALM      30.14S
SAN BERNARDINO MOCLDY    46  36  66 CALM      30.16
RIVERSIDE AP   CLOUDY    50  45  83 E5        30.15F
RIV CYN CREST    N/A     52  51  96 S2          N/A
MORENO VALLEY    N/A     51  46  82 CALM      29.36F
MARCH ARB      MOCLDY    41  41 100 CALM      30.15F
HORSETHIEF CYN   N/A     53  41  64 SW3       30.10F
PERRIS           N/A     47  46  96 S2          N/A
MENIFEE          N/A     45  44  97 CALM      30.25F
HEMET EAST       N/A     51  32  47 CALM      30.15F
FRENCH VALLEY  FAIR      45  43  93 E5        30.16F
TEMECULA         N/A     46  45  97 CALM      30.12S

$$

SAN BERNARDINO AND RIVERSIDE COUNTY MOUNTAINS

CITY           SKY/WX    TMP DP  RH WIND       PRES   REMARKS
BIG BEAR AP    MOCLDY    23  19  86 CALM      30.28F
PINE COVE        N/A     46   9  22 CALM      30.21F

$$

SOUTHERN DESERT INCLUDING THE COACHELLA VALLEY

CITY           SKY/WX    TMP DP  RH WIND       PRES   REMARKS
PALM SPRINGS   PTCLDY    54  46  74 CALM      30.20S
PALM DESERT      N/A     50  48  92 CALM      30.48S
THERMAL        PTCLDY    48  45  89 N3        30.18R
BLYTHE         PTCLDY    51  50  96 W3        30.20R
IMPERIAL AP    MOCLDY    49  47  93 W6        30.17S
EL CENTRO NAS  MOCLDY    49  47  93 W6        30.18R
YUMA AZ        MOCLDY    53  50  89 CALM      30.16R
MEXICALI       MOCLDY    50  48  93 W5        30.18

$$

UPPER DESERT

CITY           SKY/WX    TMP DP  RH WIND       PRES   REMARKS
VICTORVILLE AP MOCLDY    41  39  93 CALM      30.24F FOG
HESPERIA         N/A     42  41  96 CALM      30.38F
APPLE VALLEY     N/A     40  37  91 CALM      30.29S
PALMDALE       FOG       42  40  92 CALM      30.25S VSB 1/2
LANCASTER      MOCLDY    41  39  93 CALM      30.26S
EDWARDS AFB    FOG       40  40 100 SW6       30.23S VSB 1/4
DAGGETT        MOCLDY    43  41  93 W3        30.26R
29 PALMS N     PTCLDY    45  43  93 W6        30.31S
NEEDLES        PTCLDY    51  47  86 SW7       30.22R

$$

REGIONAL REPORTS

CITY           SKY/WX    TMP DP  RH WIND       PRES   REMARKS
SANTA BARBARA  CLOUDY    52  49  89 CALM      30.14S
SANDBERG       CLOUDY    46  41  82 E20       30.24S
MT. WILSON       N/A     46  10  23 E2          N/A
LAS VEGAS NV   MOCLDY    49  43  80 SW8       30.22R
PHOENIX AZ     MOCLDY    52  49  89 SE3       30.16R
TIJUANA        PTCLDY    54  45  71 CALM      30.14R

$$

OFFSHORE ISLANDS

CITY           SKY/WX    TMP DP  RH WIND       PRES   REMARKS
CATALINA ARPT  CLOUDY    59  43  55 NE6       30.16S
SAN NICOLAS IS CLOUDY    59  55  87 W7        30.15R

$$

MARINE AND OFFSHORE BUOY REPORTS

STATION/POSITION SKY/WX   TEMP    WIND        PRES    SWELL
                          AIR SEA DIR/SP/G            HT/PER/DIR
                          (F)     (DEG/KT/KT) (MB)    (FT/S/D)
TANNER BANKS               62 62  350/  6/  8 1020.7R   5/280/14
S CLEMENTE BASIN           62 62  350/ 12/ 14 1019.7R   5/290/14
SAN NICOLAS IS.               62                N/A     7/280/14
SO. S. ROSA ISLA           59 60  310/  2/  4 1020.3R   7/14
W. S. BARBARA CH           60 60   40/  4/  6 1020.5R   7/260/14
S. MONICA BASIN            60 62  290/  4/  6 1020.8R   5/260/14
S PEDRO CHANNEL               62                N/A     3/270/14
DANA POINT                    61                N/A     2/270/14
CMP PENDLETON NS              62                N/A     3/240/14
OCEANSIDE OFFSHR              62                N/A     2/230/13
TORREY PINES OTR              62                N/A     3/260/13
LA JOLLA 1                 57 62  160/  4/  5 1020.2F
MISSION BAY BUOY              62                N/A     3/260/13
SAN DIEGO BAY                 62              1020.8S
POINT LOMA SOUTH              62                N/A     3/260/14

$$



USA.gov is the U.S. government's official web portal to all federal, state and local government web resources and services.